Time,TemperatureF,DewpointF,PressureIn,WindDirection,WindDirectionDegrees,WindSpeedMPH,WindSpeedGustMPH,Humidity,HourlyPrecipIn,Conditions,Clouds,dailyrainin,SoftwareType,DateUTC
2013-02-07 00:00:00,40.9,31.2,30.05,North,0,0.0,0.0,68,0.00,,,0.00,WUHU216HW,2013-02-07 06:00:00,
2013-02-07 00:05:00,40.9,31.2,30.05,North,0,0.0,0.0,68,0.00,,,0.00,WUHU216HW,2013-02-07 06:05:00,
2013-02-07 00:30:00,41.0,32.0,30.04,North,0,0.0,0.0,70,0.00,,,0.00,WUHU216HW,2013-02-07 06:30:00,
2013-02-07 00:35:00,41.0,32.0,30.04,North,0,0.0,0.0,70,0.00,,,0.00,WUHU216HW,2013-02-07 06:35:00,
2013-02-07 01:00:00,40.9,32.2,30.04,North,0,0.0,0.0,71,0.00,,,0.00,WUHU216HW,2013-02-07 07:00:00,
2013-02-07 01:05:00,40.9,32.2,30.04,North,0,0.0,0.0,71,0.00,,,0.00,WUHU216HW,2013-02-07 07:05:00,
2013-02-07 01:30:00,40.1,31.5,30.04,North,0,0.0,0.0,71,0.00,,,0.00,WUHU216HW,2013-02-07 07:30:00,
2013-02-07 01:35:00,40.1,31.5,30.04,North,0,0.0,0.0,71,0.00,,,0.00,WUHU216HW,2013-02-07 07:35:00,
2013-02-07 02:00:00,39.8,31.4,30.03,North,0,0.0,0.0,72,0.00,,,0.00,WUHU216HW,2013-02-07 08:00:00,
2013-02-07 02:05:00,39.8,31.4,30.03,North,0,0.0,0.0,72,0.00,,,0.00,WUHU216HW,2013-02-07 08:05:00,
2013-02-07 02:30:00,39.2,31.2,30.04,North,0,0.0,0.0,73,0.00,,,0.00,WUHU216HW,2013-02-07 08:30:00,
2013-02-07 02:35:00,39.2,31.2,30.04,North,0,0.0,0.0,73,0.00,,,0.00,WUHU216HW,2013-02-07 08:35:00,
2013-02-07 03:00:00,39.6,32.0,30.02,North,0,0.0,0.0,74,0.00,,,0.00,WUHU216HW,2013-02-07 09:00:00,
2013-02-07 03:05:00,39.6,32.0,30.02,North,0,0.0,0.0,74,0.00,,,0.00,WUHU216HW,2013-02-07 09:05:00,
2013-02-07 03:30:00,39.2,32.0,30.01,North,0,0.0,0.0,75,0.00,,,0.00,WUHU216HW,2013-02-07 09:30:00,
2013-02-07 03:35:00,39.2,32.0,30.01,North,0,0.0,0.0,75,0.00,,,0.00,WUHU216HW,2013-02-07 09:35:00,
2013-02-07 03:59:00,38.9,32.3,29.99,North,0,0.0,0.0,77,0.00,,,0.00,WUHU216HW,2013-02-07 09:59:00,
2013-02-07 04:00:00,38.9,32.3,29.99,North,0,0.0,0.0,77,0.00,,,0.00,WUHU216HW,2013-02-07 10:00:00,
2013-02-07 04:05:00,38.9,32.3,29.99,North,0,0.0,0.0,77,0.00,,,0.00,WUHU216HW,2013-02-07 10:05:00,
2013-02-07 04:30:00,38.7,31.8,29.99,North,0,0.0,0.0,76,0.00,,,0.00,WUHU216HW,2013-02-07 10:30:00,
2013-02-07 04:35:00,38.7,31.8,29.99,North,0,0.0,0.0,76,0.00,,,0.00,WUHU216HW,2013-02-07 10:35:00,
2013-02-07 04:59:00,39.1,31.8,29.98,North,0,0.0,0.0,75,0.00,,,0.00,WUHU216HW,2013-02-07 10:59:00,
2013-02-07 05:00:00,39.1,31.8,29.98,North,0,0.0,0.0,75,0.00,,,0.00,WUHU216HW,2013-02-07 11:00:00,
2013-02-07 05:05:00,39.1,31.8,29.98,North,0,0.0,0.0,75,0.00,,,0.00,WUHU216HW,2013-02-07 11:05:00,
2013-02-07 05:30:00,38.9,31.2,29.98,North,0,0.0,0.0,74,0.00,,,0.00,WUHU216HW,2013-02-07 11:30:00,
2013-02-07 05:35:00,38.9,31.2,29.98,North,0,0.0,0.0,74,0.00,,,0.00,WUHU216HW,2013-02-07 11:35:00,
2013-02-07 05:59:00,39.2,31.6,29.98,North,0,0.0,0.0,74,0.00,,,0.00,WUHU216HW,2013-02-07 11:59:00,
2013-02-07 06:00:00,39.2,31.6,29.98,North,0,0.0,0.0,74,0.00,,,0.00,WUHU216HW,2013-02-07 12:00:00,
2013-02-07 06:05:00,39.2,31.6,29.98,North,0,0.0,0.0,74,0.00,,,0.00,WUHU216HW,2013-02-07 12:05:00,
2013-02-07 06:30:00,39.1,31.4,29.97,North,0,0.0,0.0,74,0.00,,,0.00,WUHU216HW,2013-02-07 12:30:00,
2013-02-07 06:35:00,39.1,31.4,29.97,North,0,0.0,0.0,74,0.00,,,0.00,WUHU216HW,2013-02-07 12:35:00,
2013-02-07 06:59:00,39.2,31.2,29.97,North,0,0.0,0.0,73,0.00,,,0.00,WUHU216HW,2013-02-07 12:59:00,
2013-02-07 07:00:00,39.2,31.2,29.97,North,0,0.0,0.0,73,0.00,,,0.00,WUHU216HW,2013-02-07 13:00:00,
2013-02-07 07:05:00,39.2,31.2,29.97,North,0,0.0,0.0,73,0.00,,,0.00,WUHU216HW,2013-02-07 13:05:00,
2013-02-07 07:30:00,40.0,32.0,29.96,North,0,0.0,0.0,73,0.00,,,0.00,WUHU216HW,2013-02-07 13:30:00,
2013-02-07 07:35:00,40.0,32.0,29.96,North,0,0.0,0.0,73,0.00,,,0.00,WUHU216HW,2013-02-07 13:35:00,
2013-02-07 07:59:00,40.3,32.7,29.96,North,0,0.0,0.0,74,0.00,,,0.00,WUHU216HW,2013-02-07 13:59:00,
2013-02-07 08:00:00,40.3,32.7,29.96,North,0,0.0,0.0,74,0.00,,,0.00,WUHU216HW,2013-02-07 14:00:00,
2013-02-07 08:05:00,40.3,32.7,29.96,North,0,0.0,0.0,74,0.00,,,0.00,WUHU216HW,2013-02-07 14:05:00,
2013-02-07 08:30:00,40.5,34.1,29.95,North,0,0.0,0.0,78,0.00,,,0.00,WUHU216HW,2013-02-07 14:30:00,
2013-02-07 08:35:00,40.5,34.1,29.95,North,0,0.0,0.0,78,0.00,,,0.00,WUHU216HW,2013-02-07 14:35:00,
2013-02-07 08:59:00,42.1,35.4,29.95,North,0,0.0,0.0,77,0.00,,,0.00,WUHU216HW,2013-02-07 14:59:00,
2013-02-07 09:00:00,42.1,35.4,29.95,North,0,0.0,0.0,77,0.00,,,0.00,WUHU216HW,2013-02-07 15:00:00,
2013-02-07 09:05:00,42.1,35.4,29.95,North,0,0.0,0.0,77,0.00,,,0.00,WUHU216HW,2013-02-07 15:05:00,
2013-02-07 09:30:00,44.5,36.6,29.95,North,0,0.0,0.0,74,0.00,,,0.00,WUHU216HW,2013-02-07 15:30:00,
2013-02-07 09:35:00,44.5,36.6,29.95,North,0,0.0,0.0,74,0.00,,,0.00,WUHU216HW,2013-02-07 15:35:00,
2013-02-07 09:59:00,45.2,37.4,29.95,North,0,0.0,0.0,74,0.00,,,0.00,WUHU216HW,2013-02-07 15:59:00,
2013-02-07 10:00:00,45.2,37.4,29.95,North,0,0.0,0.0,74,0.00,,,0.00,WUHU216HW,2013-02-07 16:00:00,
2013-02-07 10:05:00,45.2,37.4,29.95,North,0,0.0,0.0,74,0.00,,,0.00,WUHU216HW,2013-02-07 16:05:00,
2013-02-07 10:30:00,45.7,38.3,29.96,North,0,0.0,0.0,75,0.01,,,0.01,WUHU216HW,2013-02-07 16:30:00,
2013-02-07 10:35:00,45.7,38.3,29.96,North,0,0.0,0.0,75,0.01,,,0.01,WUHU216HW,2013-02-07 16:35:00,
2013-02-07 10:59:00,46.3,37.8,29.95,North,0,0.0,0.0,72,0.00,,,0.01,WUHU216HW,2013-02-07 16:59:00,
2013-02-07 11:00:00,46.3,37.8,29.95,North,0,0.0,0.0,72,0.00,,,0.01,WUHU216HW,2013-02-07 17:00:00,
2013-02-07 11:05:00,46.3,37.8,29.95,North,0,0.0,0.0,72,0.00,,,0.01,WUHU216HW,2013-02-07 17:05:00,
2013-02-07 11:30:00,47.0,38.1,29.93,North,0,0.0,0.0,71,0.00,,,0.01,WUHU216HW,2013-02-07 17:30:00,
2013-02-07 11:35:00,47.0,38.1,29.93,North,0,0.0,0.0,71,0.00,,,0.01,WUHU216HW,2013-02-07 17:35:00,
2013-02-07 11:59:00,48.2,38.5,29.92,North,0,0.0,0.0,69,0.00,,,0.01,WUHU216HW,2013-02-07 17:59:00,
2013-02-07 12:00:00,48.2,38.5,29.92,North,0,0.0,0.0,69,0.00,,,0.01,WUHU216HW,2013-02-07 18:00:00,
2013-02-07 12:05:00,48.2,38.5,29.92,North,0,0.0,0.0,69,0.00,,,0.01,WUHU216HW,2013-02-07 18:05:00,
2013-02-07 12:29:00,50.2,40.1,29.90,North,0,0.0,0.0,68,0.00,,,0.01,WUHU216HW,2013-02-07 18:29:00,
2013-02-07 12:30:00,50.2,40.1,29.90,North,0,0.0,0.0,68,0.00,,,0.01,WUHU216HW,2013-02-07 18:30:00,
2013-02-07 12:35:00,50.2,40.1,29.90,North,0,0.0,0.0,68,0.00,,,0.01,WUHU216HW,2013-02-07 18:35:00,
2013-02-07 12:59:00,51.8,41.7,29.88,North,0,0.0,0.0,68,0.00,,,0.01,WUHU216HW,2013-02-07 18:59:00,
2013-02-07 13:00:00,51.8,41.7,29.88,North,0,0.0,0.0,68,0.00,,,0.01,WUHU216HW,2013-02-07 19:00:00,
2013-02-07 13:05:00,51.8,41.7,29.88,North,0,0.0,0.0,68,0.00,,,0.01,WUHU216HW,2013-02-07 19:05:00,
2013-02-07 13:29:00,52.2,41.6,29.89,North,0,0.0,0.0,67,0.00,,,0.01,WUHU216HW,2013-02-07 19:29:00,
2013-02-07 13:30:00,52.2,41.6,29.89,North,0,0.0,0.0,67,0.00,,,0.01,WUHU216HW,2013-02-07 19:30:00,
2013-02-07 13:35:00,52.2,41.6,29.89,North,0,0.0,0.0,67,0.00,,,0.01,WUHU216HW,2013-02-07 19:35:00,
2013-02-07 13:59:00,50.0,40.3,29.88,North,0,0.0,0.0,69,0.00,,,0.01,WUHU216HW,2013-02-07 19:59:00,
2013-02-07 14:00:00,50.0,40.3,29.88,North,0,0.0,0.0,69,0.00,,,0.01,WUHU216HW,2013-02-07 20:00:00,
2013-02-07 14:05:00,50.0,40.3,29.88,North,0,0.0,0.0,69,0.00,,,0.01,WUHU216HW,2013-02-07 20:05:00,
2013-02-07 14:29:00,48.2,40.2,29.89,North,0,0.0,0.0,74,0.00,,,0.01,WUHU216HW,2013-02-07 20:29:00,
2013-02-07 14:30:00,48.2,40.2,29.89,North,0,0.0,0.0,74,0.00,,,0.01,WUHU216HW,2013-02-07 20:30:00,
2013-02-07 14:35:00,48.2,40.2,29.89,North,0,0.0,0.0,74,0.00,,,0.01,WUHU216HW,2013-02-07 20:35:00,
2013-02-07 15:00:00,47.0,41.1,29.88,North,0,0.0,0.0,80,0.00,,,0.03,WUHU216HW,2013-02-07 21:00:00,
2013-02-07 15:05:00,47.0,41.1,29.88,North,0,0.0,0.0,80,0.00,,,0.03,WUHU216HW,2013-02-07 21:05:00,
2013-02-07 15:30:00,47.2,41.9,29.87,North,0,0.0,0.0,82,0.00,,,0.08,WUHU216HW,2013-02-07 21:30:00,
2013-02-07 15:35:00,47.2,41.9,29.87,North,0,0.0,0.0,82,0.00,,,0.08,WUHU216HW,2013-02-07 21:35:00,
2013-02-07 16:00:00,47.5,42.3,29.87,North,0,0.0,0.0,82,0.03,,,0.11,WUHU216HW,2013-02-07 22:00:00,
2013-02-07 16:05:00,47.5,42.3,29.87,North,0,0.0,0.0,82,0.03,,,0.11,WUHU216HW,2013-02-07 22:05:00,
2013-02-07 16:30:00,47.5,42.6,29.87,North,0,0.0,0.0,83,0.02,,,0.13,WUHU216HW,2013-02-07 22:30:00,
2013-02-07 16:35:00,47.5,42.6,29.87,North,0,0.0,0.0,83,0.02,,,0.13,WUHU216HW,2013-02-07 22:35:00,
2013-02-07 16:59:00,47.3,43.4,29.89,North,0,0.0,0.0,86,0.01,,,0.14,WUHU216HW,2013-02-07 22:59:00,
2013-02-07 17:00:00,47.3,43.4,29.89,North,0,0.0,0.0,86,0.01,,,0.14,WUHU216HW,2013-02-07 23:00:00,
2013-02-07 17:05:00,47.3,43.4,29.89,North,0,0.0,0.0,86,0.01,,,0.14,WUHU216HW,2013-02-07 23:05:00,
2013-02-07 17:29:00,47.2,43.8,29.90,North,0,0.0,0.0,88,0.01,,,0.15,WUHU216HW,2013-02-07 23:29:00,
2013-02-07 17:30:00,47.2,43.8,29.90,North,0,0.0,0.0,88,0.01,,,0.15,WUHU216HW,2013-02-07 23:30:00,
2013-02-07 17:35:00,47.2,43.8,29.90,North,0,0.0,0.0,88,0.01,,,0.15,WUHU216HW,2013-02-07 23:35:00,
2013-02-07 17:59:00,47.5,45.1,29.91,North,0,0.0,0.0,91,0.01,,,0.16,WUHU216HW,2013-02-07 23:59:00,
2013-02-07 18:00:00,47.5,45.1,29.91,North,0,0.0,0.0,91,0.01,,,0.16,WUHU216HW,2013-02-08 00:00:00,
2013-02-07 18:05:00,47.5,45.1,29.91,North,0,0.0,0.0,91,0.01,,,0.16,WUHU216HW,2013-02-08 00:05:00,
2013-02-07 18:29:00,47.5,45.1,29.92,North,0,0.0,0.0,91,0.00,,,0.16,WUHU216HW,2013-02-08 00:29:00,
2013-02-07 18:30:00,47.5,45.1,29.92,North,0,0.0,0.0,91,0.00,,,0.16,WUHU216HW,2013-02-08 00:30:00,
2013-02-07 18:35:00,47.5,45.1,29.92,North,0,0.0,0.0,91,0.00,,,0.16,WUHU216HW,2013-02-08 00:35:00,
2013-02-07 18:59:00,46.8,44.4,29.94,North,0,0.0,0.0,91,0.00,,,0.16,WUHU216HW,2013-02-08 00:59:00,
2013-02-07 19:00:00,46.8,44.4,29.94,North,0,0.0,0.0,91,0.00,,,0.16,WUHU216HW,2013-02-08 01:00:00,
2013-02-07 19:05:00,46.8,44.4,29.94,North,0,0.0,0.0,91,0.00,,,0.16,WUHU216HW,2013-02-08 01:05:00,
2013-02-07 19:29:00,46.4,44.0,29.95,North,0,0.0,0.0,91,0.00,,,0.16,WUHU216HW,2013-02-08 01:29:00,
2013-02-07 19:30:00,46.4,44.0,29.95,North,0,0.0,0.0,91,0.00,,,0.16,WUHU216HW,2013-02-08 01:30:00,
2013-02-07 19:35:00,46.4,44.0,29.95,North,0,0.0,0.0,91,0.00,,,0.16,WUHU216HW,2013-02-08 01:35:00,
2013-02-07 20:00:00,45.7,43.0,29.96,North,0,0.0,0.0,90,0.00,,,0.16,WUHU216HW,2013-02-08 02:00:00,
2013-02-07 20:05:00,45.7,43.0,29.96,North,0,0.0,0.0,90,0.00,,,0.16,WUHU216HW,2013-02-08 02:05:00,
2013-02-07 20:30:00,44.3,41.0,29.98,North,0,0.0,0.0,88,0.00,,,0.16,WUHU216HW,2013-02-08 02:30:00,
2013-02-07 20:35:00,44.3,41.0,29.98,North,0,0.0,0.0,88,0.00,,,0.16,WUHU216HW,2013-02-08 02:35:00,
2013-02-07 21:00:00,43.6,40.2,29.99,North,0,0.0,0.0,88,0.00,,,0.16,WUHU216HW,2013-02-08 03:00:00,
2013-02-07 21:05:00,43.6,40.2,29.99,North,0,0.0,0.0,88,0.00,,,0.16,WUHU216HW,2013-02-08 03:05:00,
2013-02-07 21:30:00,42.8,39.9,30.00,North,0,0.0,0.0,89,0.00,,,0.16,WUHU216HW,2013-02-08 03:30:00,
2013-02-07 21:35:00,42.8,39.9,30.00,North,0,0.0,0.0,89,0.00,,,0.16,WUHU216HW,2013-02-08 03:35:00,
2013-02-07 22:00:00,42.1,38.8,30.02,North,0,0.0,0.0,88,0.00,,,0.16,WUHU216HW,2013-02-08 04:00:00,
2013-02-07 22:05:00,42.1,38.8,30.02,North,0,0.0,0.0,88,0.00,,,0.16,WUHU216HW,2013-02-08 04:05:00,
2013-02-07 22:30:00,41.2,37.6,30.03,North,0,0.0,0.0,87,0.00,,,0.16,WUHU216HW,2013-02-08 04:30:00,
2013-02-07 22:35:00,41.2,37.6,30.03,North,0,0.0,0.0,87,0.00,,,0.16,WUHU216HW,2013-02-08 04:35:00,
2013-02-07 23:00:00,40.5,36.9,30.04,North,0,0.0,0.0,87,0.00,,,0.16,WUHU216HW,2013-02-08 05:00:00,
2013-02-07 23:01:00,40.5,36.9,30.04,North,0,0.0,0.0,87,0.00,,,0.16,WUHU216HW,2013-02-08 05:01:00,
2013-02-07 23:06:00,40.5,36.9,30.04,North,0,0.0,0.0,87,0.00,,,0.16,WUHU216HW,2013-02-08 05:06:00,
2013-02-07 23:30:00,40.0,36.4,30.05,North,0,0.0,0.0,87,0.00,,,0.16,WUHU216HW,2013-02-08 05:30:00,
2013-02-07 23:35:00,40.0,36.4,30.05,North,0,0.0,0.0,87,0.00,,,0.16,WUHU216HW,2013-02-08 05:35:00,